Regional Weather Roundup
Issued by NWS

Home | Current Version | Previous Version | Text Only | Print | Product List | Glossary Off
Versions: 1 2 3 4 5 6 7 8 9 10 11 12 13 14 15 16 17 18 19 20 21 22 23 24 25 26 27 28 29 30 31 32 33 34 35 36 37 38 39 40 41 42 43 44 45 46 47 48 49 50

000
ASUS43 KBIS 241001
RWRND

NORTH DAKOTA REGIONAL WEATHER ROUNDUP
NATIONAL WEATHER SERVICE BISMARCK ND
500 AM CDT SUN MAY 24 2015

NOTE: "FAIR" INDICATES FEW OR NO CLOUDS BELOW 12,000 FEET WITH NO
SIGNIFICANT WEATHER AND/OR OBSTRUCTIONS TO VISIBILITY.


NDZ001>003-009>011-017-241100-
NORTHWEST NORTH DAKOTA

CITY           SKY/WX    TMP DP  RH WIND       PRES   REMARKS
WILLISTON      PTCLDY    45  41  86 CALM      30.08F
MINOT          PTCLDY    48  44  86 CALM      30.08F
MINOT AFB      PTCLDY    46  46 100 W1        30.08S
$$

NDZ018>021-031>035-040>046-241100-
SOUTHWEST NORTH DAKOTA

CITY           SKY/WX    TMP DP  RH WIND       PRES   REMARKS
BISMARCK       MOCLDY    55  51  86 NE3       30.07F
DICKINSON      CLOUDY    48  46  93 NE5       30.05F
GARRISON         N/A     53  49  86 CALM      30.08F
HETTINGER ARPT CLOUDY    49  47  93 E8        30.06F
$$

NDZ004>008-012>016-024-026-027-054-241100-
NORTHEAST NORTH DAKOTA

CITY           SKY/WX    TMP DP  RH WIND       PRES   REMARKS
GRAND FORKS    CLEAR     47  43  86 CALM      30.08F
GRND FRKS AFB  CLEAR     47  44  88 S1        30.08F
DEVILS LAKE    PTCLDY    50  45  81 CALM      30.09S
$$

NDZ022-023-025-028>030-036>039-047>053-241100-
SOUTHEAST NORTH DAKOTA

CITY           SKY/WX    TMP DP  RH WIND       PRES   REMARKS
FARGO          PTCLDY    52  47  83 CALM      30.08S
JAMESTOWN      PTCLDY    51  49  92 NE6       30.07F
$$




USA.gov is the U.S. government's official web portal to all federal, state and local government web resources and services.